| time (UTC) | temp C | wind direction | speed KPH | gust KPH | rain 1hr cm | rain 24hr cm | rain mn cm | humidity % | barometer mb |
| 20260510033019 | 23 | 5 | 0.0 | 4.8 | 0.00 | 0.00 | 0.00 | 61 | 1027.7 |
| 20260510031523 | 23 | 265 | 0.0 | 6.4 | 0.00 | 0.00 | 0.00 | 61 | 1027.7 |
| 20260510030018 | 23 | 267 | 0.0 | 6.4 | 0.00 | 0.00 | 0.00 | 59 | 1027.8 |
| 20260510024516 | 23 | 282 | 0.0 | 8.0 | 0.00 | 0.00 | 0.00 | 61 | 1027.9 |
| 20260510023011 | 23 | 298 | 0.0 | 6.4 | 0.00 | 0.00 | 0.00 | 58 | 1027.9 |
| 20260510021521 | 23 | 259 | 0.0 | 3.2 | 0.00 | 0.00 | 0.00 | 59 | 1028.0 |
| 20260510020004 | 22 | 120 | 0.0 | 3.2 | 0.00 | 0.00 | 0.00 | 60 | 1028.2 |
| 20260510014600 | 22 | 153 | 0.0 | 3.2 | 0.00 | 0.00 | 0.00 | 60 | 1028.4 |
| 20260510013056 | 22 | 153 | 0.0 | 3.2 | 0.00 | 0.00 | 0.00 | 62 | 1028.4 |
| 20260510011553 | 21 | 308 | 0.0 | 3.2 | 0.00 | 0.00 | 0.00 | 63 | 1028.6 |
| 20260510010048 | 21 | 154 | 0.0 | 3.2 | 0.00 | 0.00 | 0.00 | 64 | 1028.9 |
| 20260510004545 | 20 | 119 | 0.0 | 3.2 | 0.00 | 0.00 | 0.00 | 65 | 1029.1 |
| 20260510003041 | 20 | 171 | 0.0 | 4.8 | 0.00 | 0.00 | 0.00 | 65 | 1029.0 |
| 20260510001541 | 19 | 123 | 0.0 | 4.8 | 0.00 | 0.00 | 0.00 | 66 | 1028.9 |
| 20260510000044 | 18 | 130 | 0.0 | 4.8 | 0.00 | 0.00 | 0.00 | 68 | 1028.8 |
| 20260509234528 | 17 | 255 | 0.0 | 3.2 | 0.00 | 0.00 | 0.00 | 71 | 1028.6 |
| 20260509233022 | 16 | 166 | 0.0 | 3.2 | 0.00 | 0.00 | 0.00 | 73 | 1028.6 |
| 20260509231518 | 16 | 124 | 0.0 | 4.8 | 0.00 | 0.00 | 0.00 | 75 | 1028.8 |
| 20260509230015 | 15 | 112 | 0.0 | 4.8 | 0.00 | 0.00 | 0.00 | 77 | 1028.8 |
| 20260509224510 | 14 | 321 | 0.0 | 3.2 | 0.00 | 0.00 | 0.00 | 79 | 1028.6 |
| 20260509223008 | 13 | 127 | 0.0 | 3.2 | 0.00 | 0.00 | 0.00 | 81 | 1028.6 |
| 20260509221600 | 12 | 142 | 0.0 | 4.8 | 0.00 | 0.00 | 0.00 | 84 | 1028.6 |
| 20260509220101 | 12 | 132 | 0.0 | 4.8 | 0.00 | 0.00 | 0.00 | 87 | 1028.5 |
| 20260509214610 | 11 | 133 | 0.0 | 4.8 | 0.00 | 0.00 | 0.00 | 88 | 1028.3 |
| 20260509213048 | 10 | 82 | 0.0 | 4.8 | 0.00 | 0.00 | 0.00 | 89 | 1028.0 |
| 20260509211543 | 10 | 108 | 0.0 | 4.8 | 0.00 | 0.00 | 0.00 | 90 | 1027.8 |
| 20260509210044 | 10 | 132 | 0.0 | 3.2 | 0.00 | 0.00 | 0.00 | 89 | 1027.8 |
| 20260509204542 | 10 | 138 | 0.0 | 3.2 | 0.00 | 0.00 | 0.00 | 89 | 1027.5 |
| 20260509203039 | 10 | 219 | 0.0 | 4.8 | 0.00 | 0.00 | 0.00 | 89 | 1027.3 |
| 20260509201535 | 10 | 153 | 0.0 | 3.2 | 0.00 | 0.00 | 0.00 | 89 | 1027.1 |
| 20260509200037 | 10 | 143 | 0.0 | 3.2 | 0.00 | 0.00 | 0.00 | 89 | 1027.1 |
| 20260509194534 | 10 | 128 | 0.0 | 3.2 | 0.00 | 0.00 | 0.00 | 88 | 1027.0 |
| 20260509193032 | 10 | 163 | 0.0 | 0.0 | 0.00 | 0.00 | 0.00 | 88 | 1026.8 |
| 20260509191539 | 10 | 146 | 0.0 | 1.6 | 0.00 | 0.00 | 0.00 | 88 | 1026.7 |
| 20260509190030 | 10 | 130 | 0.0 | 4.8 | 0.00 | 0.00 | 0.00 | 88 | 1026.3 |
| 20260509184534 | 11 | 138 | 0.0 | 3.2 | 0.00 | 0.00 | 0.00 | 88 | 1026.0 |
| 20260509183030 | 11 | 167 | 0.0 | 3.2 | 0.00 | 0.00 | 0.00 | 88 | 1025.9 |
| 20260509181522 | 11 | 177 | 0.0 | 3.2 | 0.00 | 0.00 | 0.00 | 88 | 1025.7 |
| 20260509180020 | 11 | 162 | 0.0 | 3.2 | 0.00 | 0.00 | 0.00 | 88 | 1025.8 |
| 20260509174523 | 11 | 140 | 0.0 | 3.2 | 0.00 | 0.00 | 0.00 | 88 | 1025.8 |
| 20260509173018 | 11 | 165 | 0.0 | 3.2 | 0.00 | 0.00 | 0.00 | 88 | 1025.9 |
| 20260509171516 | 11 | 134 | 0.0 | 0.0 | 0.00 | 0.00 | 0.00 | 87 | 1026.0 |
| 20260509170019 | 11 | 120 | 0.0 | 1.6 | 0.00 | 0.00 | 0.00 | 87 | 1026.0 |
| 20260509164514 | 11 | 163 | 0.0 | 1.6 | 0.00 | 0.00 | 0.00 | 87 | 1026.0 |
| 20260509163015 | 11 | 166 | 0.0 | 1.6 | 0.00 | 0.00 | 0.00 | 87 | 1025.9 |
| 20260509161511 | 11 | 169 | 0.0 | 1.6 | 0.00 | 0.00 | 0.00 | 87 | 1026.0 |
| 20260509160009 | 12 | 150 | 0.0 | 3.2 | 0.00 | 0.00 | 0.00 | 86 | 1026.0 |
| 20260509154507 | 12 | 152 | 0.0 | 3.2 | 0.00 | 0.00 | 0.00 | 86 | 1026.0 |
| 20260509153008 | 12 | 161 | 0.0 | 3.2 | 0.00 | 0.00 | 0.00 | 86 | 1025.9 |
| 20260509151505 | 12 | 173 | 0.0 | 1.6 | 0.00 | 0.00 | 0.00 | 86 | 1026.0 |
| 20260509150004 | 12 | 169 | 0.0 | 1.6 | 0.00 | 0.00 | 0.00 | 86 | 1026.1 |
| 20260509144503 | 12 | 148 | 0.0 | 1.6 | 0.00 | 0.00 | 0.00 | 86 | 1026.1 |
| 20260509143004 | 12 | 126 | 0.0 | 1.6 | 0.00 | 0.00 | 0.00 | 86 | 1026.0 |
| 20260509141600 | 12 | 136 | 0.0 | 1.6 | 0.00 | 0.00 | 0.00 | 86 | 1026.1 |
| 20260509134557 | 12 | 135 | 0.0 | 1.6 | 0.00 | 0.00 | 0.00 | 86 | 1026.0 |
| 20260509133056 | 12 | 132 | 0.0 | 3.2 | 0.00 | 0.00 | 0.00 | 86 | 1026.0 |
| 20260509131557 | 12 | 148 | 0.0 | 0.0 | 0.00 | 0.00 | 0.00 | 85 | 1026.0 |
| 20260509130106 | 12 | 148 | 0.0 | 0.0 | 0.00 | 0.00 | 0.00 | 85 | 1026.0 |
| 20260509124556 | 13 | 157 | 0.0 | 1.6 | 0.00 | 0.00 | 0.00 | 85 | 1026.1 |
| 20260509123053 | 13 | 154 | 0.0 | 1.6 | 0.00 | 0.00 | 0.00 | 84 | 1026.1 |
| 20260509121606 | 13 | 134 | 0.0 | 1.6 | 0.00 | 0.00 | 0.00 | 84 | 1026.2 |
| 20260509120051 | 13 | 154 | 0.0 | 1.6 | 0.00 | 0.00 | 0.00 | 84 | 1026.3 |
| 20260509114558 | 13 | 162 | 0.0 | 3.2 | 0.00 | 0.00 | 0.00 | 84 | 1026.1 |
| 20260509113055 | 13 | 140 | 0.0 | 1.6 | 0.00 | 0.00 | 0.00 | 84 | 1026.0 |
| 20260509111546 | 13 | 144 | 0.0 | 1.6 | 0.00 | 0.00 | 0.00 | 84 | 1026.0 |
| 20260509110048 | 13 | 133 | 0.0 | 1.6 | 0.00 | 0.00 | 0.00 | 84 | 1026.0 |
| 20260509104545 | 13 | 118 | 0.0 | 1.6 | 0.00 | 0.00 | 0.00 | 85 | 1026.0 |
| 20260509103052 | 13 | 350 | 0.0 | 0.0 | 0.00 | 0.00 | 0.00 | 85 | 1025.9 |
| 20260509101557 | 13 | 348 | 0.0 | 0.0 | 0.00 | 0.00 | 0.00 | 85 | 1025.8 |
| 20260509100040 | 13 | 348 | 0.0 | 0.0 | 0.00 | 0.00 | 0.00 | 82 | 1025.8 |
| 20260509094542 | 13 | 348 | 0.0 | 0.0 | 0.00 | 0.00 | 0.00 | 83 | 1025.6 |
| 20260509093036 | 13 | 348 | 0.0 | 0.0 | 0.00 | 0.00 | 0.00 | 82 | 1025.6 |
| 20260509091534 | 14 | 348 | 0.0 | 0.0 | 0.00 | 0.00 | 0.00 | 82 | 1025.4 |
| 20260509090037 | 14 | 348 | 0.0 | 0.0 | 0.00 | 0.00 | 0.00 | 80 | 1025.1 |
| 20260509084529 | 14 | 348 | 0.0 | 0.0 | 0.00 | 0.00 | 0.00 | 77 | 1025.0 |
| 20260509083035 | 15 | 348 | 0.0 | 0.0 | 0.00 | 0.00 | 0.00 | 76 | 1024.8 |
| 20260509081529 | 15 | 348 | 0.0 | 0.0 | 0.00 | 0.00 | 0.00 | 74 | 1024.7 |
| 20260509080025 | 16 | 348 | 0.0 | 0.0 | 0.00 | 0.00 | 0.00 | 71 | 1024.6 |
| 20260509074523 | 16 | 348 | 0.0 | 0.0 | 0.00 | 0.00 | 0.00 | 71 | 1024.4 |
| 20260509073028 | 17 | 349 | 0.0 | 0.0 | 0.00 | 0.00 | 0.00 | 69 | 1024.2 |
| 20260509071518 | 17 | 349 | 0.0 | 0.0 | 0.00 | 0.00 | 0.00 | 68 | 1024.1 |
| 20260509070018 | 17 | 349 | 0.0 | 1.6 | 0.00 | 0.00 | 0.00 | 66 | 1023.7 |
| 20260509064517 | 18 | 91 | 0.0 | 1.6 | 0.00 | 0.00 | 0.00 | 65 | 1023.7 |
| 20260509063021 | 18 | 178 | 0.0 | 1.6 | 0.00 | 0.00 | 0.00 | 64 | 1023.8 |
| 20260509061520 | 18 | 102 | 0.0 | 3.2 | 0.00 | 0.00 | 0.00 | 62 | 1023.9 |
| 20260509060015 | 19 | 34 | 0.0 | 4.8 | 0.00 | 0.00 | 0.00 | 61 | 1023.4 |
| 20260509054514 | 20 | 289 | 0.0 | 4.8 | 0.00 | 0.00 | 0.00 | 60 | 1023.5 |
| 20260509053010 | 20 | 106 | 0.0 | 4.8 | 0.00 | 0.00 | 0.00 | 58 | 1023.2 |
| 20260509051509 | 21 | 331 | 0.0 | 4.8 | 0.00 | 0.00 | 0.00 | 57 | 1023.3 |
| 20260509050014 | 21 | 211 | 0.0 | 3.2 | 0.00 | 0.00 | 0.00 | 56 | 1023.1 |
| 20260509044509 | 21 | 156 | 0.0 | 4.8 | 0.00 | 0.00 | 0.00 | 56 | 1023.1 |
| 20260509043008 | 21 | 241 | 0.0 | 4.8 | 0.00 | 0.00 | 0.00 | 55 | 1023.2 |
| 20260509041507 | 21 | 259 | 0.0 | 4.8 | 0.00 | 0.00 | 0.00 | 55 | 1023.1 |
| 20260509040009 | 21 | 141 | 0.0 | 4.8 | 0.00 | 0.00 | 0.00 | 56 | 1022.9 |
| 20260509034507 | 21 | 128 | 1.6 | 6.4 | 0.00 | 0.00 | 0.00 | 55 | 1023.0 |